Find STARLINK-38108

NORAD ID: 799501201 Int'l Des: 2026-160Z Constellation: starlink operational

現在のビュー

3D地球を読み込み中...

About STARLINK-38108

STARLINK-38108 (NORAD 799501201) is a starlink constellation satellite launched Jul 14, 2026

STARLINK-38108について

説明を読み込み中...

次回通過

Passes for default location (London). Set your location on the main map for personalized predictions.

高度履歴

Loading altitude history...

軌道要素

1 99999C 2026160Z 26195.67131943 .00478750 00000-0 587480-4 0 1954
2 99999 70.0029 27.7760 0010468 260.2710 151.9074 16.07360482 16
Epoch: Jul 14, 2026 • Age: 3 hours